Content
SEND FEEDBACK

Daily
Averages
Monthly
Summary
Philippines

ANGELES CITY, PHILIPPINES


Home > Asia > Philippines
Elevation: 490 feet     Latitude: 15 11N     Longitude: 120 33E

WEATHER
 
SELECT A DAY
Number of Records: 93,795;   Date Range: 2/13/97 - 9/16/14
 
SHARE

PRINT THIS DATA

[ ← Previous Day ]
WEATHER ALMANAC - OCTOBER 5, 2013
[ Next Day → ]
[ °C ]   °F
Weather ElementAverageHighLow
Temperature79.9 °F87.8 °F (2:00 pm)73.4 °F (3:00 am)
Dewpoint71.8 °F73.4 °F (1:00 am)68 °F (1:00 pm)
Humidity77.5 %94 % (1:00 am)55 % (1:00 pm)
Barometer29.73 in29.77 in (1:00 am)29.53 in (2:00 pm)
Wind Speed4.3 mph9.2 mph (4:00 pm)
Weather ElementAverage
Visibility5.3 mi
Wind DirectionSSW (219.1 °)

Weather ElementTotal
Precipitation---
Cooling Degree Days15.6 (Base 65)
Growing Degree Days30.6 (Base 50)
Averaged from 22 records on October 5, 2013
WEATHER CONDITIONS BREAKOUT
WIND DIRECTION BREAKOUT
WEATHER BY HOUR - OCTOBER 5, 2013
[ °C ]   °F
Local TimeTemperatureDewpointHumidityBarometerVisibilityWind DirectionWind SpeedGust SpeedPrecipitationEventsConditions
1:00 AM75.2 °F73.4 °F94 %29.77 in5.6 miWest (260°)2.3 mphMostly Cloudy
2:00 AM75.2 °F73.4 °F94 %29.74 in5.6 miWest (280°)3.5 mphMostly Cloudy
3:00 AM73.4 °F71.6 °F94 %29.74 in5.6 miWSW (250°)5.8 mphMostly Cloudy
4:00 AM73.4 °F69.8 °F88 %29.71 in6.2 miWest (260°)4.6 mphMostly Cloudy
5:00 AM73.4 °F71.6 °F94 %29.71 in6.2 miSW (230°)3.5 mphMostly Cloudy
6:00 AM73.4 °F69.8 °F88 %29.74 in4.3 miSSW (210°)3.5 mphOvercast
7:00 AM77.0 °F73.4 °F89 %29.77 in4.3 miCalmMostly Cloudy
8:00 AM80.6 °F73.4 °F79 %29.77 in4.3 miWest (270°)2.3 mphMostly Cloudy
9:00 AM82.4 °F71.6 °F70 %29.77 inNorthMostly Cloudy
10:00 AM84.2 °F73.4 °F70 %29.77 in5.0 miNorth (360°)4.6 mphMostly Cloudy
11:00 AM86.0 °F71.6 °F62 %29.77 in5.6 miNorth (360°)4.6 mphMostly Cloudy
12:00 PM86.0 °F71.6 °F62 %29.74 in5.6 miNorth (10°)4.6 mphMostly Cloudy
1:00 PM86.0 °F68.0 °F55 %29.71 in5.6 miNorth (10°)4.6 mphMostly Cloudy
2:00 PM87.8 °F69.8 °F55 %29.53 inNorthMostly Cloudy
3:00 PM86.0 °F71.6 °F62 %29.68 inNNW (340°)8.1 mphScattered Clouds
4:00 PM87.8 °F73.4 °F62 %29.71 in5.6 miNorth (360°)9.2 mphMostly Cloudy
5:00 PM86.0 °F71.6 °F62 %29.68 in5.6 miNorth (350°)6.9 mphMostly Cloudy
6:00 PM80.6 °F73.4 °F79 %29.68 in5.0 miNNW (340°)8.1 mphMostly Cloudy
8:00 PM78.8 °F71.6 °F78 %29.74 in5.0 miVariable1.2 mphMostly Cloudy
9:00 PM75.2 °F71.6 °F89 %29.74 in5.6 miNorth (360°)2.3 mphMostly Cloudy
10:00 PM75.2 °F71.6 °F89 %29.77 inNW (320°)1.2 mphMostly Cloudy
11:00 PM75.2 °F71.6 °F89 %29.77 inWSW (250°)5.8 mphMostly Cloudy
Hourly data recorded from RPLC, located miles away from Angeles City, Philippines







STORIES FROM OUR PARTNERS